Year,Month,Day,Hour,Minute,Value (Times are PST for temperature in C)
2013,08,16,00,00,11.90
2013,08,16,00,01,11.90
2013,08,16,00,02,11.90
2013,08,16,00,03,11.90
2013,08,16,00,04,11.90
2013,08,16,00,05,11.90
2013,08,16,00,06,11.90
2013,08,16,00,07,11.90
2013,08,16,00,08,11.90
2013,08,16,00,09,11.90
2013,08,16,00,10,11.90
2013,08,16,00,11,11.90
2013,08,16,00,12,11.80
2013,08,16,00,13,11.90
2013,08,16,00,14,11.90
2013,08,16,00,15,11.90
2013,08,16,00,16,11.90
2013,08,16,00,17,11.90
2013,08,16,00,18,11.90
2013,08,16,00,19,11.90
2013,08,16,00,20,11.90
2013,08,16,00,21,11.90
2013,08,16,00,22,11.90
2013,08,16,00,23,11.90
2013,08,16,00,24,11.90
2013,08,16,00,25,11.90
2013,08,16,00,26,11.90
2013,08,16,00,27,11.90
2013,08,16,00,28,11.90
2013,08,16,00,29,11.90
2013,08,16,00,30,11.90
2013,08,16,00,31,11.90
2013,08,16,00,32,11.90
2013,08,16,00,33,11.90
2013,08,16,00,34,12.00
2013,08,16,00,35,12.00
2013,08,16,00,36,12.00
2013,08,16,00,37,12.10
2013,08,16,00,38,12.10
2013,08,16,00,39,12.10
2013,08,16,00,40,12.10
2013,08,16,00,41,12.20
2013,08,16,00,42,12.20
2013,08,16,00,43,12.20
2013,08,16,00,44,12.20
2013,08,16,00,45,12.20
2013,08,16,00,46,12.20
2013,08,16,00,47,12.20
2013,08,16,00,48,12.20
2013,08,16,00,49,12.20
2013,08,16,00,50,12.20
2013,08,16,00,51,12.20
2013,08,16,00,52,12.20
2013,08,16,00,53,12.20
2013,08,16,00,54,12.20
2013,08,16,00,55,12.20
2013,08,16,00,56,12.20
2013,08,16,00,57,12.20
2013,08,16,00,58,12.20
2013,08,16,00,59,12.20
2013,08,16,01,00,12.30
2013,08,16,01,01,12.30
2013,08,16,01,02,12.30
2013,08,16,01,03,12.30
2013,08,16,01,04,12.30
2013,08,16,01,05,12.30
2013,08,16,01,06,12.30
2013,08,16,01,07,12.30
2013,08,16,01,08,12.30
2013,08,16,01,09,12.30
2013,08,16,01,10,12.30
2013,08,16,01,11,12.30
2013,08,16,01,12,12.30
2013,08,16,01,13,12.40
2013,08,16,01,14,12.40
2013,08,16,01,15,12.40
2013,08,16,01,16,12.40
2013,08,16,01,17,12.40
2013,08,16,01,18,12.40
2013,08,16,01,19,12.40
2013,08,16,01,20,12.40
2013,08,16,01,21,12.30
2013,08,16,01,22,12.40
2013,08,16,01,23,12.40
2013,08,16,01,24,12.40
2013,08,16,01,25,12.40
2013,08,16,01,26,12.40
2013,08,16,01,27,12.40
2013,08,16,01,28,12.40
2013,08,16,01,29,12.40
2013,08,16,01,30,12.50
2013,08,16,01,31,12.50
2013,08,16,01,32,12.60
2013,08,16,01,33,12.60
2013,08,16,01,34,12.60
2013,08,16,01,35,12.60
2013,08,16,01,36,12.60
2013,08,16,01,37,12.70
2013,08,16,01,38,12.70
2013,08,16,01,39,12.70
2013,08,16,01,40,12.70
2013,08,16,01,41,12.80
2013,08,16,01,42,12.80
2013,08,16,01,43,12.80
2013,08,16,01,44,12.80
2013,08,16,01,45,12.70
2013,08,16,01,46,12.70
2013,08,16,01,47,12.60
2013,08,16,01,48,12.60
2013,08,16,01,49,12.60
2013,08,16,01,50,12.60
2013,08,16,01,51,12.60
2013,08,16,01,52,12.50
2013,08,16,01,53,12.50
2013,08,16,01,54,12.50
2013,08,16,01,55,12.50
2013,08,16,01,56,12.50
2013,08,16,01,57,12.60
2013,08,16,01,58,12.60
2013,08,16,01,59,12.60
2013,08,16,02,00,12.60
2013,08,16,02,01,12.60
2013,08,16,02,02,12.60
2013,08,16,02,03,12.60
2013,08,16,02,04,12.60
2013,08,16,02,05,12.70
2013,08,16,02,06,12.80
2013,08,16,02,07,12.80
2013,08,16,02,08,12.80
2013,08,16,02,09,12.80
2013,08,16,02,10,12.80
2013,08,16,02,11,12.80
2013,08,16,02,12,12.70
2013,08,16,02,13,12.70
2013,08,16,02,14,12.60
2013,08,16,02,15,12.60
2013,08,16,02,16,12.60
2013,08,16,02,17,12.60
2013,08,16,02,18,12.60
2013,08,16,02,19,12.60
2013,08,16,02,20,12.60
2013,08,16,02,21,12.60
2013,08,16,02,22,12.60
2013,08,16,02,23,12.60
2013,08,16,02,24,12.50
2013,08,16,02,25,12.40
2013,08,16,02,26,12.40
2013,08,16,02,27,12.40
2013,08,16,02,28,12.40
2013,08,16,02,29,12.40
2013,08,16,02,30,12.40
2013,08,16,02,31,12.40
2013,08,16,02,32,12.40
2013,08,16,02,33,12.40
2013,08,16,02,34,12.40
2013,08,16,02,35,12.40
2013,08,16,02,36,12.40
2013,08,16,02,37,12.40
2013,08,16,02,38,12.40
2013,08,16,02,39,12.40
2013,08,16,02,40,12.40
2013,08,16,02,41,12.40
2013,08,16,02,42,12.50
2013,08,16,02,43,12.50
2013,08,16,02,44,12.50
2013,08,16,02,45,12.50
2013,08,16,02,46,12.50
2013,08,16,02,47,12.60
2013,08,16,02,48,12.60
2013,08,16,02,49,12.60
2013,08,16,02,50,12.70
2013,08,16,02,51,12.70
2013,08,16,02,52,12.60
2013,08,16,02,53,12.60
2013,08,16,02,54,12.60
2013,08,16,02,55,12.60
2013,08,16,02,56,12.60
2013,08,16,02,57,12.60
2013,08,16,02,58,12.60
2013,08,16,02,59,12.70
2013,08,16,03,00,12.70
2013,08,16,03,01,12.70
2013,08,16,03,02,12.60
2013,08,16,03,03,12.60
2013,08,16,03,04,12.60
2013,08,16,03,05,12.60
2013,08,16,03,06,12.60
2013,08,16,03,07,12.60
2013,08,16,03,08,12.60
2013,08,16,03,09,12.60
2013,08,16,03,10,12.60
2013,08,16,03,11,12.60
2013,08,16,03,12,12.60
2013,08,16,03,13,12.60
2013,08,16,03,14,12.60
2013,08,16,03,15,12.60
2013,08,16,03,16,12.60
2013,08,16,03,17,12.60
2013,08,16,03,18,12.60
2013,08,16,03,19,12.60
2013,08,16,03,20,12.60
2013,08,16,03,21,12.60
2013,08,16,03,22,12.60
2013,08,16,03,23,12.60
2013,08,16,03,24,12.50
2013,08,16,03,25,12.50
2013,08,16,03,26,12.50
2013,08,16,03,27,12.50
2013,08,16,03,28,12.40
2013,08,16,03,29,12.40
2013,08,16,03,30,12.40
2013,08,16,03,31,12.40
2013,08,16,03,32,12.40
2013,08,16,03,33,12.40
2013,08,16,03,34,12.30
2013,08,16,03,35,12.30
2013,08,16,03,36,12.30
2013,08,16,03,37,12.30
2013,08,16,03,38,12.30
2013,08,16,03,39,12.30
2013,08,16,03,40,12.30
2013,08,16,03,41,12.30
2013,08,16,03,42,12.30
2013,08,16,03,43,12.30
2013,08,16,03,44,12.30
2013,08,16,03,45,12.20
2013,08,16,03,46,12.20
2013,08,16,03,47,12.20
2013,08,16,03,48,12.20
2013,08,16,03,49,12.20
2013,08,16,03,50,12.20
2013,08,16,03,51,12.20
2013,08,16,03,52,12.20
2013,08,16,03,53,12.20
2013,08,16,03,54,12.20
2013,08,16,03,55,12.20
2013,08,16,03,56,12.20
2013,08,16,03,57,12.20
2013,08,16,03,58,12.20
2013,08,16,03,59,12.20
2013,08,16,04,00,12.20
2013,08,16,04,01,12.20
2013,08,16,04,02,12.20
2013,08,16,04,03,12.20
2013,08,16,04,04,12.20
2013,08,16,04,05,12.20
2013,08,16,04,06,12.20
2013,08,16,04,07,12.20
2013,08,16,04,08,12.20
2013,08,16,04,09,12.20
2013,08,16,04,10,12.20
2013,08,16,04,11,12.20
2013,08,16,04,12,12.20
2013,08,16,04,13,12.20
2013,08,16,04,14,12.20
2013,08,16,04,15,12.20
2013,08,16,04,16,12.20
2013,08,16,04,17,12.20
2013,08,16,04,18,12.30
2013,08,16,04,19,12.30
2013,08,16,04,20,12.30
2013,08,16,04,21,12.30
2013,08,16,04,22,12.30
2013,08,16,04,23,12.20
2013,08,16,04,24,12.20
2013,08,16,04,25,12.20
2013,08,16,04,26,12.20
2013,08,16,04,27,12.20
2013,08,16,04,28,12.20
2013,08,16,04,29,12.20
2013,08,16,04,30,12.10
2013,08,16,04,31,12.10
2013,08,16,04,32,12.10
2013,08,16,04,33,12.10
2013,08,16,04,34,12.10
2013,08,16,04,35,12.20
2013,08,16,04,36,12.20
2013,08,16,04,37,12.20
2013,08,16,04,38,12.20
2013,08,16,04,39,12.20
2013,08,16,04,40,12.20
2013,08,16,04,41,12.20
2013,08,16,04,42,12.10
2013,08,16,04,43,12.10
2013,08,16,04,44,12.10
2013,08,16,04,45,12.10
2013,08,16,04,46,12.00
2013,08,16,04,47,11.90
2013,08,16,04,48,11.80
2013,08,16,04,49,11.80
2013,08,16,04,50,11.80
2013,08,16,04,51,11.80
2013,08,16,04,52,11.80
2013,08,16,04,53,11.80
2013,08,16,04,54,11.80
2013,08,16,04,55,11.80
2013,08,16,04,56,11.90
2013,08,16,04,57,11.90
2013,08,16,04,58,11.90
2013,08,16,04,59,12.00
2013,08,16,05,00,12.00
2013,08,16,05,01,12.00
2013,08,16,05,02,12.10
2013,08,16,05,03,12.10
2013,08,16,05,04,12.10
2013,08,16,05,05,12.00
2013,08,16,05,06,11.90
2013,08,16,05,07,12.00
2013,08,16,05,08,12.00
2013,08,16,05,09,11.90
2013,08,16,05,10,11.70
2013,08,16,05,11,11.70
2013,08,16,05,12,11.60
2013,08,16,05,13,11.60
2013,08,16,05,14,11.50
2013,08,16,05,15,11.40
2013,08,16,05,16,11.40
2013,08,16,05,17,11.40
2013,08,16,05,18,11.30
2013,08,16,05,19,11.30
2013,08,16,05,20,11.30
2013,08,16,05,21,11.40
2013,08,16,05,22,11.40
2013,08,16,05,23,11.50
2013,08,16,05,24,11.50
2013,08,16,05,25,11.60
2013,08,16,05,26,11.60
2013,08,16,05,27,11.60
2013,08,16,05,28,11.60
2013,08,16,05,29,11.60
2013,08,16,05,30,11.60
2013,08,16,05,31,11.60
2013,08,16,05,32,11.60
2013,08,16,05,33,11.60
2013,08,16,05,34,11.50
2013,08,16,05,35,11.50
2013,08,16,05,36,11.40
2013,08,16,05,37,11.40
2013,08,16,05,38,11.30
2013,08,16,05,39,11.30
2013,08,16,05,40,11.30
2013,08,16,05,41,11.30
2013,08,16,05,42,11.30
2013,08,16,05,43,11.30
2013,08,16,05,44,11.40
2013,08,16,05,45,11.40
2013,08,16,05,46,11.50
2013,08,16,05,47,11.60
2013,08,16,05,48,11.70
2013,08,16,05,49,11.90
2013,08,16,05,50,12.10
2013,08,16,05,51,12.20
2013,08,16,05,52,12.40
2013,08,16,05,53,12.50
2013,08,16,05,54,12.50
2013,08,16,05,55,12.50
2013,08,16,05,56,12.40
2013,08,16,05,57,12.40
2013,08,16,05,58,12.30
2013,08,16,05,59,12.20
2013,08,16,06,00,12.20
2013,08,16,06,01,12.20
2013,08,16,06,02,12.20
2013,08,16,06,03,12.10
2013,08,16,06,04,12.10
2013,08,16,06,05,12.10
2013,08,16,06,06,12.20
2013,08,16,06,07,12.20
2013,08,16,06,08,12.20
2013,08,16,06,09,12.20
2013,08,16,06,10,12.10
2013,08,16,06,11,12.10
2013,08,16,06,12,12.10
2013,08,16,06,13,12.00
2013,08,16,06,14,12.00
2013,08,16,06,15,12.20
2013,08,16,06,16,12.30
2013,08,16,06,17,12.50
2013,08,16,06,18,12.60
2013,08,16,06,19,12.70
2013,08,16,06,20,12.70
2013,08,16,06,21,12.60
2013,08,16,06,22,12.40
2013,08,16,06,23,12.40
2013,08,16,06,24,12.50
2013,08,16,06,25,12.60
2013,08,16,06,26,12.60
2013,08,16,06,27,12.50
2013,08,16,06,28,12.30
2013,08,16,06,29,12.10
2013,08,16,06,30,12.00
2013,08,16,06,31,11.80
2013,08,16,06,32,11.80
2013,08,16,06,33,11.70
2013,08,16,06,34,11.70
2013,08,16,06,35,11.70
2013,08,16,06,36,11.70
2013,08,16,06,37,11.70
2013,08,16,06,38,11.70
2013,08,16,06,39,11.60
2013,08,16,06,40,11.60
2013,08,16,06,41,11.60
2013,08,16,06,42,11.60
2013,08,16,06,43,11.60
2013,08,16,06,44,11.60
2013,08,16,06,45,11.60
2013,08,16,06,46,11.70
2013,08,16,06,47,11.70
2013,08,16,06,48,11.70
2013,08,16,06,49,11.70
2013,08,16,06,50,11.70
2013,08,16,06,51,11.70
2013,08,16,06,52,11.70
2013,08,16,06,53,11.70
2013,08,16,06,54,11.60
2013,08,16,06,55,11.60
2013,08,16,06,56,11.70
2013,08,16,06,57,11.70
2013,08,16,06,58,11.80
2013,08,16,06,59,11.80
2013,08,16,07,00,11.80
2013,08,16,07,01,11.80
2013,08,16,07,02,11.80
2013,08,16,07,03,11.90
2013,08,16,07,04,11.90
2013,08,16,07,05,12.00
2013,08,16,07,06,12.00
2013,08,16,07,07,12.10
2013,08,16,07,08,12.10
2013,08,16,07,09,12.10
2013,08,16,07,10,12.10
2013,08,16,07,11,12.10
2013,08,16,07,12,12.10
2013,08,16,07,13,12.10
2013,08,16,07,14,12.20
2013,08,16,07,15,12.40
2013,08,16,07,16,12.50
2013,08,16,07,17,12.60
2013,08,16,07,18,12.70
2013,08,16,07,19,12.60
2013,08,16,07,20,12.60
2013,08,16,07,21,12.50
2013,08,16,07,22,12.40
2013,08,16,07,23,12.40
2013,08,16,07,24,12.40
2013,08,16,07,25,12.40
2013,08,16,07,26,12.40
2013,08,16,07,27,12.40
2013,08,16,07,28,12.40
2013,08,16,07,29,12.40
2013,08,16,07,30,12.40
2013,08,16,07,31,12.50
2013,08,16,07,32,12.60
2013,08,16,07,33,12.70
2013,08,16,07,34,12.70
2013,08,16,07,35,12.80
2013,08,16,07,36,12.80
2013,08,16,07,37,13.00
2013,08,16,07,38,13.20
2013,08,16,07,39,13.40
2013,08,16,07,40,13.40
2013,08,16,07,41,13.40
2013,08,16,07,42,13.40
2013,08,16,07,43,13.40
2013,08,16,07,44,13.30
2013,08,16,07,45,13.30
2013,08,16,07,46,13.20
2013,08,16,07,47,13.20
2013,08,16,07,48,13.20
2013,08,16,07,49,13.30
2013,08,16,07,50,13.30
2013,08,16,07,51,13.30
2013,08,16,07,52,13.40
2013,08,16,07,53,13.40
2013,08,16,07,54,13.50
2013,08,16,07,55,13.50
2013,08,16,07,56,13.60
2013,08,16,07,57,13.60
2013,08,16,07,58,13.60
2013,08,16,07,59,13.60
2013,08,16,08,00,13.50
2013,08,16,08,01,13.50
2013,08,16,08,02,13.40
2013,08,16,08,03,13.40
2013,08,16,08,04,13.40
2013,08,16,08,05,13.40
2013,08,16,08,06,13.40
2013,08,16,08,07,13.40
2013,08,16,08,08,13.40
2013,08,16,08,09,13.30
2013,08,16,08,10,13.30
2013,08,16,08,11,13.30
2013,08,16,08,12,13.30
2013,08,16,08,13,13.30
2013,08,16,08,14,13.30
2013,08,16,08,15,13.30
2013,08,16,08,16,13.20
2013,08,16,08,17,13.20
2013,08,16,08,18,13.20
2013,08,16,08,19,13.10
2013,08,16,08,20,13.10
2013,08,16,08,21,13.00
2013,08,16,08,22,12.90
2013,08,16,08,23,12.80
2013,08,16,08,24,12.60
2013,08,16,08,25,12.60
2013,08,16,08,26,12.60
2013,08,16,08,27,12.60
2013,08,16,08,28,12.50
2013,08,16,08,29,12.50
2013,08,16,08,30,12.40
2013,08,16,08,31,12.40
2013,08,16,08,32,12.30
2013,08,16,08,33,12.30
2013,08,16,08,34,12.30
2013,08,16,08,35,12.30
2013,08,16,08,36,12.20
2013,08,16,08,37,12.20
2013,08,16,08,38,12.20
2013,08,16,08,39,12.20
2013,08,16,08,40,12.20
2013,08,16,08,41,12.20
2013,08,16,08,42,12.20
2013,08,16,08,43,12.20
2013,08,16,08,44,12.20
2013,08,16,08,45,12.20
2013,08,16,08,46,12.20
2013,08,16,08,47,12.30
2013,08,16,08,48,12.30
2013,08,16,08,49,12.30
2013,08,16,08,50,12.30
2013,08,16,08,51,12.30
2013,08,16,08,52,12.30
2013,08,16,08,53,12.30
2013,08,16,08,54,12.40
2013,08,16,08,55,12.50
2013,08,16,08,56,12.50
2013,08,16,08,57,12.60
2013,08,16,08,58,12.60
2013,08,16,08,59,12.70
2013,08,16,09,00,12.80
2013,08,16,09,01,12.80
2013,08,16,09,02,12.80
2013,08,16,09,03,12.80
2013,08,16,09,04,12.80
2013,08,16,09,05,12.90
2013,08,16,09,06,13.00
2013,08,16,09,07,13.20
2013,08,16,09,08,13.20
2013,08,16,09,09,13.20
2013,08,16,09,10,13.20
2013,08,16,09,11,13.20
2013,08,16,09,12,13.10
2013,08,16,09,13,13.10
2013,08,16,09,14,13.10
2013,08,16,09,15,13.20
2013,08,16,09,16,13.20
2013,08,16,09,17,13.20
2013,08,16,09,18,13.20
2013,08,16,09,19,13.30
2013,08,16,09,20,13.30
2013,08,16,09,21,13.30
2013,08,16,09,22,13.30
2013,08,16,09,23,13.30
2013,08,16,09,24,13.30
2013,08,16,09,25,13.30
2013,08,16,09,26,13.30
2013,08,16,09,27,13.40
2013,08,16,09,28,13.40
2013,08,16,09,29,13.50
2013,08,16,09,30,13.50
2013,08,16,09,31,13.50
2013,08,16,09,32,13.50
2013,08,16,09,33,13.50
2013,08,16,09,34,13.50
2013,08,16,09,35,13.50
2013,08,16,09,36,13.50
2013,08,16,09,37,13.50
2013,08,16,09,38,13.50
2013,08,16,09,39,13.50
2013,08,16,09,55,14.10
2013,08,16,09,56,14.20
2013,08,16,09,57,14.30
2013,08,16,09,58,14.40
2013,08,16,09,59,14.40
2013,08,16,10,00,14.50
2013,08,16,10,01,14.50
2013,08,16,10,02,14.60
2013,08,16,10,03,14.60
2013,08,16,10,04,14.60
2013,08,16,10,05,14.60
2013,08,16,10,06,14.50
2013,08,16,10,07,14.50
2013,08,16,10,08,14.50
2013,08,16,10,09,14.50
2013,08,16,10,10,14.50
2013,08,16,10,11,14.50
2013,08,16,10,12,14.50
2013,08,16,10,13,14.50
2013,08,16,10,14,14.50
2013,08,16,10,15,14.40
2013,08,16,10,16,14.40
2013,08,16,10,17,14.40
2013,08,16,10,18,14.40
2013,08,16,10,19,14.40
2013,08,16,10,20,14.40
2013,08,16,10,21,14.40
2013,08,16,10,22,14.40
2013,08,16,10,23,14.40
2013,08,16,10,24,14.40
2013,08,16,10,25,14.50
2013,08,16,10,26,14.50
2013,08,16,10,27,14.50
2013,08,16,10,28,14.60
2013,08,16,10,29,14.60
2013,08,16,10,30,14.60
2013,08,16,10,31,14.60
2013,08,16,10,32,14.60
2013,08,16,10,33,14.70
2013,08,16,10,34,14.70
2013,08,16,10,35,14.80
2013,08,16,10,36,14.80
2013,08,16,10,37,14.80
2013,08,16,10,38,14.80
2013,08,16,10,39,14.80
2013,08,16,10,40,14.80
2013,08,16,10,41,14.90
2013,08,16,10,42,14.90
2013,08,16,10,43,14.90
2013,08,16,10,44,14.90
2013,08,16,10,45,14.90
2013,08,16,10,46,14.90
2013,08,16,10,47,14.90
2013,08,16,10,48,14.90
2013,08,16,10,49,14.90
2013,08,16,10,50,14.90
2013,08,16,10,51,14.90
2013,08,16,10,52,14.90
2013,08,16,10,53,14.90
2013,08,16,10,54,14.90
2013,08,16,10,55,14.90
2013,08,16,10,56,14.80
2013,08,16,10,57,14.80
2013,08,16,10,58,14.80
2013,08,16,10,59,14.70
2013,08,16,11,00,14.70
2013,08,16,11,01,14.70
2013,08,16,11,02,14.70
2013,08,16,11,03,14.70
2013,08,16,11,04,14.70
2013,08,16,11,05,14.70
2013,08,16,11,06,14.60
2013,08,16,11,07,14.60
2013,08,16,11,08,14.60
2013,08,16,11,09,14.60
2013,08,16,11,10,14.60
2013,08,16,11,11,14.60
2013,08,16,11,12,14.60
2013,08,16,11,13,14.70
2013,08,16,11,14,14.70
2013,08,16,11,15,14.70
2013,08,16,11,16,14.70
2013,08,16,11,17,14.70
2013,08,16,11,18,14.80
2013,08,16,11,19,14.80
2013,08,16,11,20,14.80
2013,08,16,11,21,14.90
2013,08,16,11,22,15.00
2013,08,16,11,23,15.00
2013,08,16,11,24,15.10
2013,08,16,11,25,15.20
2013,08,16,11,26,15.20
2013,08,16,11,27,15.20
2013,08,16,11,28,15.20
2013,08,16,11,29,15.20
2013,08,16,11,30,15.20
2013,08,16,11,31,15.20
2013,08,16,11,32,15.20
2013,08,16,11,33,15.20
2013,08,16,11,34,15.20
2013,08,16,11,35,15.30
2013,08,16,11,36,15.20
2013,08,16,11,37,15.20
2013,08,16,11,38,15.20
2013,08,16,11,39,15.20
2013,08,16,11,40,15.20
2013,08,16,11,41,15.20
2013,08,16,11,42,15.20
2013,08,16,11,43,15.20
2013,08,16,11,44,15.20
2013,08,16,11,45,15.20
2013,08,16,11,46,15.20
2013,08,16,11,47,15.20
2013,08,16,11,48,15.20
2013,08,16,11,49,15.10
2013,08,16,11,50,15.20
2013,08,16,11,51,15.20
2013,08,16,11,52,15.20
2013,08,16,11,53,15.20
2013,08,16,11,54,15.20
2013,08,16,11,55,15.20
2013,08,16,11,56,15.20
2013,08,16,11,57,15.20
2013,08,16,11,58,15.20
2013,08,16,11,59,15.20
2013,08,16,12,00,15.20
2013,08,16,12,01,15.20
2013,08,16,12,02,15.20
2013,08,16,12,03,15.20
2013,08,16,12,04,15.20
2013,08,16,12,05,15.20
2013,08,16,12,06,15.20
2013,08,16,12,07,15.20
2013,08,16,12,08,15.20
2013,08,16,12,09,15.20
2013,08,16,12,10,15.20
2013,08,16,12,11,15.30
2013,08,16,12,12,15.30
2013,08,16,12,13,15.30
2013,08,16,12,14,15.30
2013,08,16,12,15,15.30
2013,08,16,12,16,15.30
2013,08,16,12,17,15.30
2013,08,16,12,18,15.40
2013,08,16,12,19,15.40
2013,08,16,12,20,15.40
2013,08,16,12,21,15.40
2013,08,16,12,22,15.50
2013,08,16,12,23,15.50
2013,08,16,12,24,15.60
2013,08,16,12,25,15.60
2013,08,16,12,26,15.60
2013,08,16,12,27,15.70
2013,08,16,12,28,15.70
2013,08,16,12,29,15.70
2013,08,16,12,30,15.70
2013,08,16,12,31,15.70
2013,08,16,12,32,15.80
2013,08,16,12,33,15.80
2013,08,16,12,34,15.90
2013,08,16,12,35,15.90
2013,08,16,12,36,15.90
2013,08,16,12,37,15.90
2013,08,16,12,38,15.90
2013,08,16,12,39,15.90
2013,08,16,12,40,15.90
2013,08,16,12,41,15.90
2013,08,16,12,42,15.90
2013,08,16,12,43,15.90
2013,08,16,12,44,15.90
2013,08,16,12,45,15.90
2013,08,16,12,46,15.90
2013,08,16,12,47,15.90
2013,08,16,12,48,15.90
2013,08,16,12,49,15.90
2013,08,16,12,50,15.90
2013,08,16,12,51,15.90
2013,08,16,12,52,16.00
2013,08,16,12,53,16.00
2013,08,16,12,54,15.90
2013,08,16,12,55,15.90
2013,08,16,12,56,15.90
2013,08,16,12,57,15.90
2013,08,16,12,58,15.90
2013,08,16,12,59,16.00
2013,08,16,13,00,16.00
2013,08,16,13,01,16.00
2013,08,16,13,02,16.00
2013,08,16,13,03,16.00
2013,08,16,13,04,16.10
2013,08,16,13,05,16.10
2013,08,16,13,06,16.10
2013,08,16,13,07,16.10
2013,08,16,13,08,16.10
2013,08,16,13,09,16.10
2013,08,16,13,10,16.10
2013,08,16,13,11,16.10
2013,08,16,13,12,16.10
2013,08,16,13,13,16.10
2013,08,16,13,14,16.10
2013,08,16,13,15,16.20
2013,08,16,13,16,16.20
2013,08,16,13,17,16.20
2013,08,16,13,18,16.20
2013,08,16,13,19,16.20
2013,08,16,13,20,16.20
2013,08,16,13,21,16.20
2013,08,16,13,22,16.20
2013,08,16,13,23,16.20
2013,08,16,13,24,16.20
2013,08,16,13,25,16.20
2013,08,16,13,26,16.30
2013,08,16,13,27,16.30
2013,08,16,13,28,16.30
2013,08,16,13,29,16.40
2013,08,16,13,30,16.40
2013,08,16,13,31,16.40
2013,08,16,13,32,16.40
2013,08,16,13,33,16.40
2013,08,16,13,34,16.50
2013,08,16,13,35,16.50
2013,08,16,13,36,16.50
2013,08,16,13,37,16.50
2013,08,16,13,38,16.60
2013,08,16,13,39,16.60
2013,08,16,13,40,16.60
2013,08,16,13,41,16.60
2013,08,16,13,42,16.60
2013,08,16,13,43,16.60
2013,08,16,13,44,16.60
2013,08,16,13,45,16.60
2013,08,16,13,46,16.60
2013,08,16,13,47,16.60
2013,08,16,13,48,16.60
2013,08,16,13,49,16.60
2013,08,16,13,50,16.60
2013,08,16,13,51,16.60
2013,08,16,13,52,16.60
2013,08,16,13,53,16.60
2013,08,16,13,54,16.60
2013,08,16,13,55,16.50
2013,08,16,13,56,16.50
2013,08,16,13,57,16.50
2013,08,16,13,58,16.40
2013,08,16,13,59,16.40
2013,08,16,14,00,16.40
2013,08,16,14,01,16.40
2013,08,16,14,02,16.40
2013,08,16,14,03,16.40
2013,08,16,14,04,16.40
2013,08,16,14,05,16.40
2013,08,16,14,06,16.40
2013,08,16,14,07,16.40
2013,08,16,14,08,16.40
2013,08,16,14,09,16.30
2013,08,16,14,10,16.30
2013,08,16,14,11,16.30
2013,08,16,14,12,16.30
2013,08,16,14,13,16.30
2013,08,16,14,14,16.30
2013,08,16,14,15,16.30
2013,08,16,14,16,16.30
2013,08,16,14,17,16.30
2013,08,16,14,18,16.30
2013,08,16,14,19,16.30
2013,08,16,14,20,16.30
2013,08,16,14,21,16.30
2013,08,16,14,22,16.30
2013,08,16,14,23,16.30
2013,08,16,14,24,16.30
2013,08,16,14,25,16.20
2013,08,16,14,26,16.20
2013,08,16,14,27,16.20
2013,08,16,14,28,16.20
2013,08,16,14,29,16.20
2013,08,16,14,30,16.10
2013,08,16,14,31,16.10
2013,08,16,14,32,16.20
2013,08,16,14,33,16.20
2013,08,16,14,34,16.20
2013,08,16,14,35,16.20
2013,08,16,14,36,16.10
2013,08,16,14,37,16.10
2013,08,16,14,38,16.10
2013,08,16,14,39,16.10
2013,08,16,14,40,16.00
2013,08,16,14,41,16.00
2013,08,16,14,42,16.00
2013,08,16,14,43,16.00
2013,08,16,14,44,16.10
2013,08,16,14,45,16.00
2013,08,16,14,46,16.00
2013,08,16,14,47,16.00
2013,08,16,14,48,16.10
2013,08,16,14,49,16.10
2013,08,16,14,50,16.00
2013,08,16,14,51,16.00
2013,08,16,14,52,15.90
2013,08,16,14,53,15.80
2013,08,16,14,54,15.80
2013,08,16,14,55,15.70
2013,08,16,14,56,15.70
2013,08,16,14,57,15.70
2013,08,16,14,58,15.70
2013,08,16,14,59,15.70
2013,08,16,15,00,15.70
2013,08,16,15,01,15.60
2013,08,16,15,02,15.60
2013,08,16,15,03,15.60
2013,08,16,15,04,15.60
2013,08,16,15,05,15.60
2013,08,16,15,06,15.60
2013,08,16,15,07,15.60
2013,08,16,15,08,15.60
2013,08,16,15,09,15.60
2013,08,16,15,10,15.60
2013,08,16,15,11,15.70
2013,08,16,15,12,15.70
2013,08,16,15,13,15.80
2013,08,16,15,14,15.90
2013,08,16,15,15,15.90
2013,08,16,15,16,15.90
2013,08,16,15,17,16.00
2013,08,16,15,18,15.90
2013,08,16,15,19,16.00
2013,08,16,15,20,16.00
2013,08,16,15,21,16.00
2013,08,16,15,22,16.10
2013,08,16,15,23,16.10
2013,08,16,15,24,16.10
2013,08,16,15,25,16.00
2013,08,16,15,26,16.00
2013,08,16,15,27,15.90
2013,08,16,15,28,15.90
2013,08,16,15,29,15.80
2013,08,16,15,30,15.70
2013,08,16,15,31,15.60
2013,08,16,15,32,15.60
2013,08,16,15,33,15.60
2013,08,16,15,34,15.60
2013,08,16,15,35,15.50
2013,08,16,15,36,15.50
2013,08,16,15,37,15.60
2013,08,16,15,38,15.60
2013,08,16,15,39,15.60
2013,08,16,15,40,15.60
2013,08,16,15,41,15.60
2013,08,16,15,42,15.60
2013,08,16,15,43,15.70
2013,08,16,15,44,15.60
2013,08,16,15,45,15.60
2013,08,16,15,46,15.50
2013,08,16,15,47,15.40
2013,08,16,15,48,15.30
2013,08,16,15,49,15.20
2013,08,16,15,50,15.20
2013,08,16,15,51,15.20
2013,08,16,15,52,15.20
2013,08,16,15,53,15.20
2013,08,16,15,54,15.30
2013,08,16,15,55,15.20
2013,08,16,15,56,15.20
2013,08,16,15,57,15.20
2013,08,16,15,58,15.20
2013,08,16,15,59,15.20
2013,08,16,16,00,15.20
2013,08,16,16,01,15.20
2013,08,16,16,02,15.20
2013,08,16,16,03,15.10
2013,08,16,16,04,15.00
2013,08,16,16,05,14.90
2013,08,16,16,06,14.80
2013,08,16,16,07,14.60
2013,08,16,16,08,14.40
2013,08,16,16,09,14.20
2013,08,16,16,10,14.20
2013,08,16,16,11,14.30
2013,08,16,16,12,14.50
2013,08,16,16,13,14.70
2013,08,16,16,14,14.50
2013,08,16,16,15,14.20
2013,08,16,16,16,14.10
2013,08,16,16,17,14.20
2013,08,16,16,18,14.50
2013,08,16,16,19,14.70
2013,08,16,16,20,14.80
2013,08,16,16,21,14.80
2013,08,16,16,22,14.80
2013,08,16,16,23,14.80
2013,08,16,16,24,14.80
2013,08,16,16,25,14.90
2013,08,16,16,26,14.90
2013,08,16,16,27,14.80
2013,08,16,16,28,14.80
2013,08,16,16,29,15.00
2013,08,16,16,30,15.10
2013,08,16,16,31,15.10
2013,08,16,16,32,15.20
2013,08,16,16,33,15.30
2013,08,16,16,34,15.50
2013,08,16,16,35,15.60
2013,08,16,16,36,15.70
2013,08,16,16,37,15.80
2013,08,16,16,38,15.90
2013,08,16,16,39,16.00
2013,08,16,16,40,16.10
2013,08,16,16,41,16.20
2013,08,16,16,42,16.20
2013,08,16,16,43,16.00
2013,08,16,16,44,15.60
2013,08,16,16,45,15.40
2013,08,16,16,46,15.20
2013,08,16,16,47,15.30
2013,08,16,16,48,15.40
2013,08,16,16,49,15.40
2013,08,16,16,50,15.50
2013,08,16,16,51,15.60
2013,08,16,16,52,15.50
2013,08,16,16,53,15.30
2013,08,16,16,54,15.10
2013,08,16,16,55,14.80
2013,08,16,16,56,14.60
2013,08,16,16,57,14.40
2013,08,16,16,58,14.20
2013,08,16,16,59,14.00
2013,08,16,17,00,13.90
2013,08,16,17,01,13.80
2013,08,16,17,02,13.70
2013,08,16,17,03,13.60
2013,08,16,17,04,13.50
2013,08,16,17,05,13.50
2013,08,16,17,06,13.40
2013,08,16,17,07,13.40
2013,08,16,17,08,13.40
2013,08,16,17,09,13.40
2013,08,16,17,10,13.40
2013,08,16,17,11,13.30
2013,08,16,17,12,13.30
2013,08,16,17,13,13.30
2013,08,16,17,14,13.30
2013,08,16,17,15,13.30
2013,08,16,17,16,13.20
2013,08,16,17,17,13.20
2013,08,16,17,18,13.30
2013,08,16,17,19,13.20
2013,08,16,17,20,13.20
2013,08,16,17,21,13.20
2013,08,16,17,22,13.20
2013,08,16,17,23,13.20
2013,08,16,17,24,13.30
2013,08,16,17,25,13.30
2013,08,16,17,26,13.40
2013,08,16,17,27,13.50
2013,08,16,17,28,13.60
2013,08,16,17,29,13.70
2013,08,16,17,30,13.80
2013,08,16,17,31,13.80
2013,08,16,17,32,13.70
2013,08,16,17,33,13.70
2013,08,16,17,34,13.70